Location: Clanezzo
(45.7500°N, 9.6000°E)
Time: 01:13:12
(UTC+00:00)

OE (NEXTSAT) - Pass Details

Date: 12 May 2021
Orbit: 425 x 432 km, 46.0° (Epoch: 23 June)

Event Time Altitude Azimuth Distance (km) Brightness Sun altitude
Rises 19:11:58 0° 278° (W) 2,394 9.5 -5.2°
Reaches altitude 10° 19:14:05 10° 278° (W) 1,528 8.3 -5.5°
Maximum altitude 19:17:32 84° 190° (S) 437 4.3 -6.0°
Drops below altitude 10° 19:21:00 10° 102° (ESE) 1,530 6.5 -6.5°
Enters shadow 19:21:35 - 102° (ESE) 1,765 6.8 -6.6°
